Location: Newark
(61.5000°N, 23.7667°E)
Time: 01:58:14
(UTC+00:00)

FO-29 - Visible Passes

Search period start: 15 November 2019 00:00
Search period end: 25 November 2019 00:00
Orbit: 800 x 1321 km, 98.6° (Epoch: 14 November)

Date Brightness Start Highest point End Pass type
(mag) Time Alt. Az. Time Alt. Az. Time Alt. Az.
15 Nov 11.8 01:57:41 14° NNW 01:57:41 14° NNW 01:58:46 10° NNW visible
15 Nov 10.1 14:27:34 10° NNE 14:34:36 67° WNW 14:40:45 10° SW visible
15 Nov 11.4 16:12:47 10° NNE 16:18:37 28° NW 16:23:55 10° W visible
15 Nov 12.0 17:57:20 10° NNE 18:01:38 17° NNW 18:05:42 10° NW visible
15 Nov 11.9 19:42:38 16° NNE 19:44:18 17° NNE 19:48:34 10° NNW visible
15 Nov 11.6 21:29:07 26° NNE 21:29:07 26° NNE 21:33:18 10° NNW visible
15 Nov 11.5 23:15:37 28° N 23:15:37 28° N 23:18:37 10° NNW visible
16 Nov 11.7 01:02:07 19° NNW 01:02:07 19° NNW 01:03:52 10° NNW visible
16 Nov 10.8 15:17:46 10° NNE 15:24:18 42° NW 15:30:06 10° WSW visible
16 Nov 11.7 17:02:49 10° NNE 17:07:46 21° NNW 17:12:22 10° WNW visible
16 Nov 12.0 18:47:04 11° NNE 18:50:31 16° N 18:54:20 10° NNW visible
16 Nov 11.8 20:33:33 21° NNE 20:33:33 21° NNE 20:38:16 10° NNW visible
16 Nov 11.6 22:20:02 27° N 22:20:02 27° N 22:23:24 10° NNW visible
17 Nov 11.6 00:06:32 23° NNW 00:06:32 23° NNW 00:08:46 10° NNW visible
17 Nov 11.9 01:53:02 13° NNW 01:53:02 13° NNW 01:53:46 10° NNW visible
17 Nov 10.0 14:22:41 10° NNE 14:29:36 69° WNW 14:35:40 10° SW visible
17 Nov 11.3 16:07:56 10° NNE 16:13:41 28° NW 16:18:55 10° W visible
17 Nov 11.9 17:52:34 10° NNE 17:56:44 17° NNW 18:00:42 10° NW visible
17 Nov 11.9 19:37:58 16° NNE 19:39:25 17° NNE 19:43:31 10° NNW visible
17 Nov 11.7 21:24:28 24° NNE 21:24:28 24° NNE 21:28:14 10° NNW visible
17 Nov 11.6 23:10:57 25° N 23:10:57 25° N 23:13:35 10° NNW visible
18 Nov 11.8 00:57:27 17° NNW 00:57:27 17° NNW 00:58:51 10° NNW visible
18 Nov 10.7 15:12:53 10° NNE 15:19:20 43° NW 15:25:03 10° WSW visible
18 Nov 11.7 16:57:59 10° NNE 17:02:51 21° NNW 17:07:22 10° WNW visible
18 Nov 12.0 18:42:23 11° NNE 18:45:38 15° N 18:49:18 10° NNW visible
18 Nov 11.8 20:28:52 20° NNE 20:28:52 20° NNE 20:33:12 10° NNW visible
18 Nov 11.7 22:15:22 25° N 22:15:22 25° N 22:18:21 10° NNW visible
19 Nov 11.7 00:01:52 20° NNW 00:01:52 20° NNW 00:03:45 10° NNW visible
19 Nov 12.0 01:48:22 12° NNW 01:48:22 12° NNW 01:48:46 10° NNW visible
19 Nov 11.3 16:03:04 10° NNE 16:08:45 28° NW 16:13:55 10° W visible
19 Nov 11.9 17:47:47 10° NNE 17:51:51 17° NNW 17:55:41 10° NW visible
19 Nov 11.9 19:33:17 16° NNE 19:34:32 16° NNE 19:38:27 10° NNW visible
19 Nov 11.7 21:19:47 23° N 21:19:47 23° N 21:23:11 10° NNW visible
19 Nov 11.7 23:06:16 23° N 23:06:16 23° N 23:08:32 10° NNW visible
20 Nov 11.9 00:52:46 15° NNW 00:52:46 15° NNW 00:53:50 10° NNW visible
20 Nov 10.6 15:08:00 10° NNE 15:14:21 44° NW 15:20:00 10° WSW visible
20 Nov 11.7 16:53:09 10° NNE 16:57:56 21° NNW 17:02:22 10° WNW visible
20 Nov 12.0 18:37:41 11° NNE 18:40:46 15° N 18:44:15 10° NNW visible
20 Nov 11.8 20:24:11 19° NNE 20:24:11 19° NNE 20:28:07 10° NNW visible
20 Nov 11.7 22:10:41 23° N 22:10:41 23° N 22:13:17 10° NNW visible
20 Nov 11.8 23:57:10 18° NNW 23:57:10 18° NNW 23:58:42 10° NNW visible
21 Nov 12.0 01:43:40 10° NNW 01:43:40 10° NNW 01:43:45 10° NNW visible
21 Nov 11.2 15:58:12 10° NNE 16:03:48 29° NW 16:08:52 10° W visible
21 Nov 11.9 17:42:59 10° NNE 17:46:56 16° NNW 17:50:40 10° NW visible
21 Nov 11.9 19:28:35 15° NNE 19:29:39 16° NNE 19:33:22 10° NNW visible
21 Nov 11.8 21:15:05 21° N 21:15:05 21° N 21:18:06 10° NNW visible
21 Nov 11.8 23:01:34 20° NNW 23:01:34 20° NNW 23:03:28 10° NNW visible
22 Nov 12.0 00:48:03 14° NNW 00:48:03 14° NNW 00:48:47 10° NNW visible
22 Nov 10.5 15:03:05 10° NNE 15:09:22 45° NW 15:14:56 10° WSW visible
22 Nov 11.6 16:48:18 10° NNE 16:53:00 20° NNW 16:57:21 10° WNW visible
22 Nov 12.0 18:32:59 11° NNE 18:35:51 15° N 18:39:11 10° NNW visible
22 Nov 11.8 20:19:28 18° NNE 20:19:28 18° NNE 20:23:01 10° NNW visible
22 Nov 11.8 22:05:58 21° N 22:05:58 21° N 22:08:13 10° NNW visible
22 Nov 11.9 23:52:27 16° NNW 23:52:27 16° NNW 23:53:39 10° NNW visible
23 Nov 11.1 15:53:18 10° NNE 15:58:50 29° NW 16:03:51 10° W visible
23 Nov 11.8 17:38:11 10° NNE 17:42:02 16° NNW 17:45:38 10° NW visible
23 Nov 11.9 19:23:52 15° NNE 19:24:45 15° N 19:28:16 10° NNW visible
23 Nov 11.8 21:10:21 20° N 21:10:21 20° N 21:13:00 10° NNW visible
23 Nov 11.9 22:56:51 18° NNW 22:56:51 18° NNW 22:58:23 10° NNW visible
24 Nov 12.1 00:43:20 12° NNW 00:43:20 12° NNW 00:43:44 10° NNW visible
24 Nov 10.4 14:58:11 10° NNE 15:04:22 46° NW 15:09:52 10° SW visible
24 Nov 11.6 16:43:26 10° NNE 16:48:04 20° NNW 16:52:20 10° WNW visible
24 Nov 11.9 18:28:15 11° NNE 18:30:57 14° N 18:34:06 10° NNW visible
24 Nov 11.8 20:14:44 17° NNE 20:14:44 17° NNE 20:17:55 10° NNW visible
24 Nov 11.9 22:01:14 19° N 22:01:14 19° N 22:03:07 10° NNW visible
24 Nov 12.0 23:47:43 14° NNW 23:47:43 14° NNW 23:48:34 10° NNW visible
